^^
Saratoga-Weather Station Historical Data
Daily Summary for March 3, 2020 Units:  English    Metric   Both
Daily Weekly Monthly Yearly Custom
  High: Low: Average:
Temperature: 61.5 °F 55.8 °F 58.1 °F
Dew Point: 53.2 °F 51.3 °F 52.3 °F
Humidity: 85% 74% 81%
Wind Speed: 2.9mph 0mph 1.1mph
Wind Gust: 4mph - -
Wind- - WNW
Pressure: 30 in 30 in -
Precipitation: 0 in    
Historical Graphs
 
 
Tabular Data for March 3, 2020
Time Temperature Dew Point Pressure Wind Wind Speed Wind Gust Humidity Rainfall Rate (Hourly) solar
00:02 61.5 °F 53.2 °F 30 in WNW 0.9 mph 2 mph 74% 0 in 0 W/m2
00:07 61.2 °F 53.2 °F 30 in WNW 0.9 mph 1 mph 75% 0 in 0 W/m2
00:12 61 °F 53.1 °F 30 in Calm   1 mph 75% 0 in 0 W/m2
00:17 60.6 °F 53.1 °F 30 in WNW 0.9 mph 1 mph 76% 0 in 0 W/m2
00:22 60.4 °F 53.2 °F 30 in Calm   1 mph 77% 0 in 0 W/m2
00:27 60.1 °F 53.2 °F 30 in Calm     78% 0 in 0 W/m2
00:32 59.7 °F 52.9 °F 30 in Calm     78% 0 in 0 W/m2
00:37 59.5 °F 53.1 °F 30 in WNW 0.9 mph 1 mph 79% 0 in 0 W/m2
00:42 59.2 °F 52.7 °F 30 in WNW 0.9 mph 1 mph 79% 0 in 0 W/m2
00:47 58.8 °F 52.7 °F 30 in WNW 2 mph 2 mph 80% 0 in 0 W/m2
00:52 58.6 °F 52.5 °F 30 in WNW 2 mph 2 mph 80% 0 in 0 W/m2
00:57 58.6 °F 52.9 °F 30 in West 2 mph 3 mph 81% 0 in 0 W/m2
01:02 58.5 °F 52.7 °F 30 in West 0.9 mph 2 mph 81% 0 in 0 W/m2
01:07 58.3 °F 52.5 °F 30 in WNW 2 mph 4 mph 81% 0 in 0 W/m2
01:12 58.3 °F 52.5 °F 30 in WNW 2 mph 2 mph 81% 0 in 0 W/m2
01:17 58.3 °F 52.9 °F 30 in WNW 2 mph 4 mph 82% 0 in 0 W/m2
01:22 58.1 °F 52.7 °F 30 in WNW 0.9 mph 3 mph 82% 0 in 0 W/m2
01:27 58.1 °F 52.7 °F 30 in WNW 2 mph 2 mph 82% 0 in 0 W/m2
01:32 57.9 °F 52.5 °F 30 in West 2 mph 3 mph 82% 0 in 0 W/m2
01:38 57.9 °F 52.5 °F 30 in West 0.9 mph 3 mph 82% 0 in 0 W/m2
01:43 57.7 °F 52.3 °F 30 in Calm   3 mph 82% 0 in 0 W/m2
01:48 57.7 °F 52.3 °F 30 in Calm   2 mph 82% 0 in 0 W/m2
01:58 57.6 °F 52.2 °F 30 in WNW 2 mph 2 mph 82% 0 in 0 W/m2
02:03 57.6 °F 52.2 °F 30 in WNW 0.9 mph 3 mph 82% 0 in 0 W/m2
02:08 57.4 °F 52.3 °F 30 in WNW 0.9 mph 2 mph 83% 0 in 0 W/m2
02:13 57.4 °F 52.3 °F 30 in West 2.9 mph 3 mph 83% 0 in 0 W/m2
02:18 57 °F 52 °F 30 in West 0.9 mph 2 mph 83% 0 in 0 W/m2
02:23 56.8 °F 51.8 °F 30 in West 2.9 mph 3 mph 83% 0 in 0 W/m2
02:28 56.8 °F 51.8 °F 30 in West 0.9 mph 2 mph 83% 0 in 0 W/m2
02:33 56.8 °F 51.8 °F 30 in Calm   2 mph 83% 0 in 0 W/m2
02:38 56.8 °F 51.8 °F 30 in WNW 2 mph 2 mph 83% 0 in 0 W/m2
02:43 56.7 °F 51.6 °F 30 in WNW 2 mph 2 mph 83% 0 in 0 W/m2
02:48 56.7 °F 51.6 °F 30 in WNW 2 mph 2 mph 83% 0 in 0 W/m2
02:53 56.5 °F 51.6 °F 30 in West 0.9 mph 2 mph 84% 0 in 0 W/m2
02:58 56.1 °F 51.4 °F 30 in Calm   1 mph 84% 0 in 0 W/m2
03:03 55.9 °F 51.3 °F 30 in Calm   1 mph 84% 0 in 0 W/m2
03:08 55.9 °F 51.4 °F 30 in West 0.9 mph 2 mph 85% 0 in 0 W/m2
03:13 55.8 °F 51.3 °F 30 in West 0.9 mph 2 mph 85% 0 in 0 W/m2
03:18 55.8 °F 51.3 °F 30 in Calm   2 mph 85% 0 in 0 W/m2
Juneau County Weather
Compliments of Weather Underground - 4 mb